Location: Bad Dürkheim
(49.4618°N, 8.1724°E)
Time: 21:13:16
(UTC+00:00)

SL-16 R/B - Pass Details

Date: 14 June 2025
Orbit: 841 x 847 km, 71.0° (Epoch: 16 July)

Event Time Altitude Azimuth Distance (km) Brightness Sun altitude
Rises 23:14:48 0° 314° (NW) 3,408 6.1 -17.2°
Reaches altitude 10° 23:19:31 10° 278° (W) 2,466 4.7 -17.2°
Maximum altitude 23:20:44 11° 266° (W) 2,415 4.6 -17.2°
Drops below altitude 10° 23:21:57 10° 253° (WSW) 2,463 4.5 -17.2°
Enters shadow 23:23:46 - 237° (WSW) 2,705 4.5 -17.2°
